Date,TemperatureHighF,TemperatureAvgF,TemperatureLowF,DewpointHighF,DewpointAvgF,DewpointLowF,HumidityHigh,HumidityAvg,HumidityLow,PressureMaxIn,PressureMinIn,WindSpeedMaxMPH,WindSpeedAvgMPH,GustSpeedMaxMPH,PrecipitationSumIn
2013-10-1,57.7,51.0,47.2,50.7,47.2,45.3,95,87,69,30.08,29.88,14,3,14,0.14
2013-10-2,51.9,49.5,46.7,50.2,47.7,45.3,99,93,89,30.17,30.04,9,1,9,0.61
2013-10-3,56.3,49.6,47.3,52.9,47.8,45.9,98,94,81,30.44,30.17,4,0,4,0.00
2013-10-4,60.7,50.3,45.3,54.4,47.2,44.0,96,90,63,30.47,30.34,4,0,4,0.01
2013-10-5,69.0,54.3,46.7,55.2,49.4,45.3,99,85,56,30.34,30.12,4,0,4,0.00
2013-10-6,68.3,56.3,48.2,54.4,48.9,43.4,95,78,44,30.12,29.85,14,2,14,0.04
2013-10-7,59.0,53.5,48.9,54.9,50.7,46.9,94,91,80,29.99,29.84,15,2,15,0.07
2013-10-8,54.6,49.3,45.9,52.1,47.1,43.3,99,92,79,30.06,29.95,13,1,13,0.19
2013-10-9,57.6,49.1,44.7,50.1,45.4,43.3,95,87,72,30.12,29.94,9,0,9,0.00
2013-10-10,58.0,50.6,47.7,51.3,47.6,45.3,94,90,73,30.06,29.92,6,0,6,0.01
2013-10-11,55.7,50.2,47.5,50.3,47.8,46.1,100,92,81,30.13,30.05,4,0,4,0.00
2013-10-12,55.9,49.5,46.5,52.1,47.5,44.6,96,93,83,30.20,30.06,9,0,9,0.07
2013-10-13,56.0,48.7,43.9,50.1,46.0,42.6,96,91,77,30.35,30.20,6,0,6,0.01
2013-10-14,57.2,49.0,44.9,49.3,45.7,43.3,96,89,70,30.42,30.35,4,0,4,0.00
2013-10-15,59.2,49.2,44.4,52.2,46.7,43.1,96,91,74,30.37,30.17,5,0,5,0.00
2013-10-16,56.9,49.8,46.6,50.8,47.5,44.9,95,92,79,30.19,30.14,12,1,12,0.00
2013-10-17,56.2,50.0,46.9,50.1,47.6,45.3,100,92,80,30.27,30.19,5,0,5,0.00
2013-10-18,52.5,47.3,44.7,49.9,45.8,43.4,96,94,89,30.24,30.14,5,0,5,0.00
2013-10-19,48.4,45.8,42.8,47.2,44.7,41.4,96,96,95,30.19,30.14,5,0,5,0.01
2013-10-20,49.0,47.5,46.7,47.6,46.3,45.6,96,95,94,30.20,30.15,4,0,4,0.00
2013-10-21,50.0,47.6,46.4,48.9,46.4,45.3,96,96,95,30.17,30.10,5,0,5,0.00
2013-10-22,52.1,48.4,46.2,50.0,47.0,45.1,96,95,91,30.11,30.03,9,0,5,0.00
2013-10-23,57.9,49.2,44.9,53.1,47.3,43.8,97,93,79,30.05,29.97,5,0,4,0.00
2013-10-24,49.4,47.2,43.8,48.3,46.1,42.6,96,96,95,30.11,30.01,9,0,2,0.01
2013-10-25,51.7,48.1,45.9,50.5,47.0,44.8,96,96,95,30.31,30.11,4,0,4,0.01
2013-10-26,53.7,49.7,47.0,50.5,47.3,44.6,98,92,82,30.32,30.18,10,1,10,0.00
2013-10-27,55.2,50.9,46.9,50.1,46.1,41.8,99,85,66,30.19,29.88,20,3,20,0.13
2013-10-28,55.4,51.2,47.2,42.7,36.6,32.4,76,58,45,29.93,29.88,20,5,20,0.00
2013-10-29,55.4,46.7,40.9,44.5,40.0,33.1,93,78,57,30.02,29.93,4,0,4,0.00
2013-10-30,53.2,47.9,42.5,48.1,43.5,40.3,93,85,73,30.10,30.01,12,2,12,0.01
2013-10-31,53.3,50.6,48.9,51.0,47.6,44.0,94,89,83,30.24,30.05,13,1,13,0.00